Regional Weather Roundup
Issued by NWS

Home | Current Version | Previous Version | Graphics & Text | Print | Product List | Glossary Off
Versions: 1 2 3 4 5 6 7 8 9 10 11 12 13 14 15 16 17 18 19 20 21 22 23 24 25 26 27 28 29 30 31 32 33 34 35 36 37 38 39 40 41 42 43 44 45 46 47 48 49 50

000
ASUS43 KMKX 190111
RWRWI

WISCONSIN REGIONAL WEATHER ROUNDUP
NATIONAL WEATHER SERVICE MILWAUKEE/SULLIVAN WI
800 PM CDT SAT APR 18 2015

NOTE: "FAIR" INDICATES FEW OR NO CLOUDS BELOW 12,000 FEET WITH NO
SIGNIFICANT WEATHER AND/OR OBSTRUCTIONS TO VISIBILITY.

WIZ001-002-006>008-014>016-023>028-190200-
NORTHWEST WISCONSIN

CITY           SKY/WX    TMP DP  RH WIND       PRES   REMARKS
SUPERIOR ARPT  MOCLDY    37  32  84 NE10G21   30.08F WCI  29
ASHLAND        MOCLDY    36  31  82 N6        30.08F WCI  31
HAYWARD        CLOUDY    52  33  48 NE5       30.02F
SIREN          CLOUDY    57  34  41 NE8       29.98F
CUMBERLAND     CLOUDY    59  30  33 E8        29.98F
RICE LAKE      CLOUDY    61  30  31 E10G18    30.00F
CHETEK         CLOUDY    60  31  33 E9G20     29.99F
LADYSMITH      CLOUDY    59  24  25 SE10G17   30.04F
EAU CLAIRE     MOCLDY    60  28  29 E12       29.97F
MENOMONIE      CLOUDY    61  28  28 E12       29.97S
NEW RICHMOND   CLOUDY    62  32  32 E12       29.94F
OSCEOLA        CLOUDY    63  34  33 E14       29.96S
$$

WIZ003>005-009-010-017-018-190200-
NORTH CENTRAL WISCONSIN

CITY           SKY/WX    TMP DP  RH WIND       PRES   REMARKS
MANITOWISH WTR MOCLDY    56  24  29 E5        30.06S
ARBOR VITAE    MOCLDY    57  21  24 SE7       30.07S
WOODRUFF       MOCLDY    57  21  24 SE7       30.07S
RHINELANDER    MOCLDY    54  11  18 SE13      30.09S
EAGLE RIVER    PTCLDY    55  19  24 SE5       30.09S
LAND O LAKES   PTCLDY    54  22  28 SE5       30.10S
PHILLIPS       CLOUDY    57  28  32 SE7       30.04F
TOMAHAWK       MOCLDY    53  16  23 CALM      30.08F
MEDFORD        CLOUDY    54  19  26 E10G16    30.05S
MERRILL        MOCLDY    55  16  21 E6        30.07F
$$

WIZ029-030-035-036-043>047-190200-
CENTRAL WISCONSIN

CITY           SKY/WX    TMP DP  RH WIND       PRES   REMARKS
WAUSAU         MOCLDY    54  17  23 E9        30.06F
MOSINEE        CLEAR     52  19  28 E9        30.07S
MARSHFIELD     PTCLDY    54  25  32 E12       30.04F
STEVENS POINT  MOCLDY    51  17  25 E6        30.07S
WAUPACA        PTCLDY    55  20  25 E7        30.09S
WAUTOMA        PTCLDY    56  24  29 NE10      30.06F
WISC RAPIDS    PTCLDY    56  22  26 E12       30.05F
CAMP DOUGLAS   MOCLDY    57  23  26 E13       30.01S
$$

WIZ011>013-019>022-031-037>040-048>050-190200-
NORTHEAST WISCONSIN

CITY           SKY/WX    TMP DP  RH WIND       PRES   REMARKS
ANTIGO         MOCLDY    49  19  29 E9        30.10S
SHAWANO        PTCLDY    54  26  35 E12       30.11S
OCONTO         CLEAR     50  27  39 NE8       30.12S
STURGEON BAY   CLEAR     48  25  40 NE9       30.14F
GREEN BAY      CLEAR     48  33  56 NE13      30.11F
MANITOWOC      CLEAR     47  28  47 NE9         N/A
APPLETON       PTCLDY    54  21  28 NE14      30.09F
CLINTONVILLE   PTCLDY    52  18  25 E7        30.09F
OSHKOSH        CLEAR     53  30  41 E12       30.07F
$$

WIZ032>034-041-042-053>061-190200-
SOUTHWEST WISCONSIN

CITY           SKY/WX    TMP DP  RH WIND       PRES   REMARKS
LA CROSSE      MOCLDY    65  31  28 E14       29.96R
SPARTA         PTCLDY    59  23  24 E8        30.00R
VIROQUA        MOCLDY    60  31  34 E15       29.97S
BOSCOBEL       MOCLDY    66  31  27 E7        29.96S
PRAIRIE DU CHI MOCLDY    67  31  26 E18G24    29.92S
PLATTEVILLE    CLOUDY    64  33  31 E14       29.95S
$$

WIZ056-057-062-063-064-067-068-190200-
SOUTH CENTRAL WISCONSIN

CITY           SKY/WX    TMP DP  RH WIND       PRES   REMARKS
REEDSBURG      PTCLDY    59  29  31 E8        30.00S
BARABOO/DELLS  PTCLDY    58  26  28 E12G18    30.01F
LONE ROCK      PTCLDY    62  28  27 E13       29.98S
MINERAL POINT  PTCLDY    63  27  25 E7        29.97S
MADISON        MOCLDY    59  34  39 E12       30.01S
MIDDLETON      PTCLDY    61  30  30 E10       30.01R
WATERTOWN      CLEAR     55  32  42 E13       30.02S
MONROE         PTCLDY    61  36  39 E12G17    29.98R
JANESVILLE     CLEAR     59  32  36 E13       29.99S
$$

WIZ051-052-058>065-066-070>072-190200-
SOUTHEAST WISCONSIN

CITY           SKY/WX    TMP DP  RH WIND       PRES   REMARKS
MILWAUKEE      PTCLDY    43  31  62 N20G29    30.05F
WAUKESHA       PTCLDY    50  30  46 NE15      30.04F
MILWAUKEE/TIMM CLEAR     50  27  40 NE12      30.05F
RACINE         CLEAR     42  33  70 N18G28    30.06S
BURLINGTON     CLEAR     48  31  50 NE6       30.03S
KENOSHA        CLEAR     45  33  63 NE12      30.04R
FOND DU LAC    CLEAR     52  27  38 NE10      30.06F
SHEBOYGAN      CLEAR     47  28  47 NE14      30.07F
WEST BEND      CLEAR     46  27  46 NE7       30.06F
JUNEAU         CLEAR     54  30  40 NE9       30.05R
$$

LSZ147-162-190200-
LAKE SUPERIOR

STATION/POSITION TIME  TEMP    WIND        PRES    WAVE
                       AIR SEA DIR/SP/G            HT/PER
                 (UTC) (F)     (DEG/KT/KT) (MB)    (FT/S)
DEVILS ISLAND    0100   37      60/ 20/ 22 1019.3F
PORT WING        0040   38      40/ 17/ 21 1018.6F
SAXON HARBOR     0000   40     300/  3/  5 1018.3
$$

LMZ867-665-643>646-190200-
LAKE MICHIGAN

STATION/POSITION TIME  TEMP    WIND        PRES    WAVE
                       AIR SEA DIR/SP/G            HT/PER
                 (UTC) (F)     (DEG/KT/KT) (MB)    (FT/S)
CHAMBERS ISLAND  0000   45      20/ 11/ 15 1020.3F
NORTHPORT PIER   0000   52      50/ 10/ 13 1020.3F
SISTER BAY       0017   53      20/  6/ 11   N/A
KEWAUNEE LAKESHO 0000   45      30/ 14/ 18 1019.1F
SHEBOYGAN LAKESH 0100   43      10/ 19/ 21 1019.0F
PORT WASHINGTON  0000   51      20/ 10/ 15 1019.0
MILWAUKEE LAKESH 0000   44      10/ 20/ 26   N/A
KENOSHA   LAKESH 0100   44      10/ 21/ 25 1016.9S
$$

TC  - TEMPERATURE IN CELSIUS
VSB - VISIBILITY IN STATUTE MILES
WCI - WIND CHILL INDEX
HX  - HEAT INDEX



USA.gov is the U.S. government's official web portal to all federal, state and local government web resources and services.